Flag for Guatemala Weather past 2 weeks in Guatemala, Guatemala

Now
75 °F

Passing clouds.


Feels Like: 78 °F
Forecast: 59 / 79 °F
Wind: 18 mph from North

Location: Guatemala Aeropuertola Aurora

Current Time: Jul 31, 2014 at 6:21:30 PM

Latest Report: Jul 31, 2014 at 5:00 PM


Visibility: N/A

Pressure: 30.24 "Hg

Humidity: 54%

Dew point: 57 °F

Location of GuatemalaLocation

Historic Weather in Guatemala — Graph

°F

Guatemala temperature yesterday

Maximum temperature yesterday: 77 °F (at 1:00 PM)
Minimum temperature yesterday: 63 °F (at 5:00 AM)
Average temperature yesterday: 69 °F

Past Weeks' High & Low Weather Summary

 TemperatureHumidityPressure
High82 °F (Jul 17, 2:00 PM)100% (Jul 25, 5:00 AM)30.39 "Hg (Jul 25, 5:00 AM)
Low59 °F (Jul 25, 5:00 AM)45% (Jul 24, 3:00 PM)30.21 "Hg (Jul 18, 4:00 PM)
Average69 °F76%30.31 "Hg
* Reported Jul 16 5:00 PM — Jul 31 5:00 PM, Guatemala, Weather by CustomWeather, © 2014

Note: Actual official high and low records may vary slightly from our data, if they occured in-between our weather recording intervals... More about our weather records

Advertising

Guatemala weather history for previous 24 hours

 ConditionsComfort  
Time TempWeatherWind HumidityBarometerVisibility
5:00 PM
Jul 31
75 °FPassing clouds.18 mph54%30.24 "HgN/A
4:00 PM79 °FScattered clouds.18 mph48%30.24 "HgN/A
3:00 PM79 °FScattered clouds.18 mph48%30.27 "HgN/A
2:00 PM79 °FPassing clouds.14 mph48%30.27 "HgN/A
1:00 PM77 °FPassing clouds.16 mph54%30.30 "HgN/A
12:00 PM75 °FPassing clouds.16 mph54%30.30 "HgN/A
11:00 AM75 °FScattered clouds.23 mph50%30.33 "HgN/A
10:00 AM73 °FSunny.16 mph57%30.33 "Hg10 mi
9:00 AM70 °FSunny.16 mph60%30.33 "Hg10 mi
8:00 AM68 °FSunny.16 mph69%30.30 "Hg10 mi
7:00 AM61 °FSunny.12 mph94%30.30 "Hg10 mi
6:00 AM61 °FScattered clouds.12 mph94%30.30 "HgN/A
5:00 AM61 °FPassing clouds.12 mph94%30.30 "HgN/A
4:00 AM61 °FPassing clouds.9 mph94%30.30 "HgN/A
3:00 AM63 °FPassing clouds.14 mph94%30.30 "HgN/A
2:00 AM63 °FClear.14 mph94%30.30 "Hg10 mi
1:00 AM63 °FClear.14 mph88%30.33 "Hg10 mi
12:00 AM64 °FClear.16 mph83%30.33 "Hg10 mi
11:00 PM
Jul 30
66 °FClear.14 mph78%30.36 "Hg10 mi
10:00 PM66 °FClear.16 mph78%30.33 "Hg10 mi
9:00 PM68 °FClear.14 mph73%30.33 "Hg10 mi
8:00 PM70 °FClear.18 mph69%30.30 "Hg10 mi
7:00 PM70 °FClear.14 mph64%30.30 "Hg10 mi
6:00 PM73 °FSunny.16 mph53%30.30 "Hg10 mi
Weather by CustomWeather, © 2014

See weather overviewHow to use our weather pages